ZHONGXING-2C

Last updated on Tue Jul 08 2025 00:02:46 GMT+0000 (Coordinated Universal Time)

1 41021U 15063A 25188.58409090 -.00000307 00000+0 00000+0 0 9991 2 41021 0.1315 260.6821 0006644 299.9108 38.9206 1.00272686 35539
UTC large
Height (km)
Speed (km/s)
/
Latitude / Longitude
Inclination (degrees)
Orbital Period (minutes)
Azimuth
Elevation
Range (km)
Doppler Factor

Next 0 passes for location: London (51.5072 / 0.1276)

Sorry there are no passes over London.